| time (UTC) | temp F | wind direction | speed MPH | gust MPH | rain 1hr in | rain 24hr in | rain mn in | humidity % | barometer mb |
| 20260506211532 | 63 | 324 | 10.0 | 19.0 | 0.00 | 0.00 | 0.00 | 24 | 1009.7 |
| 20260506210032 | 63 | 294 | 9.0 | 15.0 | 0.00 | 0.00 | 0.00 | 25 | 1010.0 |
| 20260506204532 | 62 | 312 | 10.0 | 18.0 | 0.00 | 0.00 | 0.00 | 25 | 1010.2 |
| 20260506203030 | 61 | 249 | 9.0 | 17.0 | 0.00 | 0.00 | 0.00 | 26 | 1010.5 |
| 20260506201541 | 60 | 234 | 5.0 | 13.0 | 0.00 | 0.00 | 0.00 | 25 | 1010.7 |
| 20260506200032 | 59 | 292 | 8.0 | 16.0 | 0.00 | 0.00 | 0.00 | 25 | 1010.9 |
| 20260506194534 | 58 | 292 | 6.0 | 21.0 | 0.00 | 0.00 | 0.00 | 27 | 1011.1 |
| 20260506193030 | 57 | 254 | 11.0 | 22.0 | 0.00 | 0.00 | 0.00 | 26 | 1011.4 |
| 20260506191532 | 57 | 232 | 8.0 | 13.0 | 0.00 | 0.00 | 0.00 | 25 | 1011.6 |
| 20260506190029 | 56 | 204 | 10.0 | 23.0 | 0.00 | 0.00 | 0.00 | 27 | 1012.0 |
| 20260506184536 | 55 | 178 | 11.0 | 23.0 | 0.00 | 0.00 | 0.00 | 25 | 1012.3 |
| 20260506183031 | 54 | 221 | 8.0 | 17.0 | 0.00 | 0.00 | 0.00 | 26 | 1012.6 |
| 20260506181530 | 53 | 196 | 8.0 | 17.0 | 0.00 | 0.00 | 0.00 | 26 | 1012.7 |
| 20260506180032 | 52 | 165 | 10.0 | 20.0 | 0.00 | 0.00 | 0.00 | 28 | 1013.1 |
| 20260506174532 | 51 | 203 | 10.0 | 16.0 | 0.00 | 0.00 | 0.00 | 27 | 1013.4 |
| 20260506173035 | 50 | 207 | 10.0 | 18.0 | 0.00 | 0.00 | 0.00 | 28 | 1013.6 |
| 20260506171539 | 49 | 211 | 8.0 | 17.0 | 0.00 | 0.00 | 0.00 | 31 | 1014.0 |
| 20260506170029 | 49 | 196 | 10.0 | 18.0 | 0.00 | 0.00 | 0.00 | 33 | 1014.4 |
| 20260506164532 | 48 | 169 | 10.0 | 19.0 | 0.00 | 0.00 | 0.00 | 36 | 1014.4 |
| 20260506163039 | 47 | 211 | 12.0 | 18.0 | 0.00 | 0.00 | 0.00 | 38 | 1014.6 |
| 20260506161538 | 46 | 184 | 11.0 | 16.0 | 0.00 | 0.00 | 0.00 | 42 | 1014.9 |
| 20260506160034 | 44 | 244 | 10.0 | 17.0 | 0.00 | 0.00 | 0.00 | 47 | 1015.0 |
| 20260506154537 | 43 | 232 | 12.0 | 18.0 | 0.00 | 0.00 | 0.00 | 49 | 1015.3 |
| 20260506153028 | 42 | 215 | 12.0 | 18.0 | 0.00 | 0.00 | 0.00 | 51 | 1015.4 |
| 20260506151530 | 41 | 219 | 12.0 | 17.0 | 0.00 | 0.00 | 0.00 | 53 | 1015.7 |
| 20260506150032 | 41 | 215 | 10.0 | 16.0 | 0.00 | 0.00 | 0.00 | 54 | 1015.7 |
| 20260506144531 | 40 | 220 | 10.0 | 16.0 | 0.00 | 0.00 | 0.00 | 55 | 1015.9 |
| 20260506143029 | 39 | 254 | 11.0 | 16.0 | 0.00 | 0.00 | 0.00 | 55 | 1016.1 |
| 20260506141526 | 38 | 212 | 10.0 | 14.0 | 0.00 | 0.00 | 0.00 | 54 | 1016.3 |
| 20260506140034 | 38 | 213 | 7.0 | 11.0 | 0.00 | 0.00 | 0.00 | 53 | 1016.3 |
| 20260506134532 | 36 | 184 | 5.0 | 8.0 | 0.00 | 0.00 | 0.00 | 53 | 1016.3 |
| 20260506133031 | 34 | 213 | 4.0 | 7.0 | 0.00 | 0.00 | 0.00 | 56 | 1016.3 |
| 20260506131533 | 33 | 234 | 4.0 | 7.0 | 0.00 | 0.00 | 0.00 | 56 | 1016.3 |
| 20260506130032 | 31 | 262 | 1.0 | 4.0 | 0.00 | 0.00 | 0.00 | 56 | 1016.4 |
| 20260506124528 | 30 | 252 | 2.0 | 4.0 | 0.00 | 0.00 | 0.00 | 56 | 1016.6 |
| 20260506123030 | 30 | 267 | 2.0 | 3.0 | 0.00 | 0.00 | 0.00 | 56 | 1016.6 |
| 20260506121530 | 29 | 268 | 2.0 | 4.0 | 0.00 | 0.00 | 0.00 | 57 | 1016.7 |
| 20260506120034 | 29 | 268 | 2.0 | 4.0 | 0.00 | 0.00 | 0.00 | 56 | 1016.8 |
| 20260506114529 | 30 | 267 | 3.0 | 6.0 | 0.00 | 0.00 | 0.00 | 55 | 1017.0 |
| 20260506113030 | 30 | 268 | 3.0 | 6.0 | 0.00 | 0.00 | 0.00 | 56 | 1017.1 |
| 20260506111530 | 30 | 268 | 5.0 | 7.0 | 0.00 | 0.00 | 0.00 | 55 | 1017.3 |
| 20260506110033 | 30 | 265 | 4.0 | 6.0 | 0.00 | 0.00 | 0.00 | 55 | 1017.5 |
| 20260506104530 | 29 | 265 | 3.0 | 6.0 | 0.00 | 0.00 | 0.00 | 56 | 1017.4 |
| 20260506103033 | 29 | 263 | 3.0 | 4.0 | 0.00 | 0.00 | 0.00 | 56 | 1017.6 |
| 20260506101530 | 29 | 261 | 2.0 | 7.0 | 0.00 | 0.00 | 0.00 | 55 | 1017.7 |
| 20260506100028 | 29 | 263 | 4.0 | 7.0 | 0.00 | 0.00 | 0.00 | 55 | 1017.8 |
| 20260506094530 | 29 | 257 | 2.0 | 5.0 | 0.00 | 0.00 | 0.00 | 54 | 1018.0 |
| 20260506093052 | 29 | 237 | 4.0 | 7.0 | 0.00 | 0.00 | 0.00 | 53 | 1018.0 |
| 20260506091533 | 28 | 259 | 3.0 | 7.0 | 0.00 | 0.00 | 0.00 | 54 | 1018.2 |
| 20260506090029 | 30 | 227 | 3.0 | 5.0 | 0.00 | 0.00 | 0.00 | 52 | 1018.2 |
| 20260506084529 | 31 | 229 | 2.0 | 5.0 | 0.00 | 0.00 | 0.00 | 52 | 1018.4 |
| 20260506083034 | 30 | 336 | 1.0 | 2.0 | 0.00 | 0.00 | 0.00 | 54 | 1018.5 |
| 20260506081532 | 28 | 336 | 1.0 | 3.0 | 0.00 | 0.00 | 0.00 | 55 | 1018.5 |
| 20260506073030 | 29 | 0 | 0.0 | 3.0 | 0.00 | 0.00 | 0.00 | 55 | 1018.8 |
| 20260506071534 | 28 | 0 | 0.0 | 4.0 | 0.00 | 0.00 | 0.00 | 54 | 1018.8 |
| 20260506061540 | 30 | 326 | 2.0 | 7.0 | 0.00 | 0.00 | 0.00 | 54 | 1019.2 |
| 20260506044529 | 34 | 336 | 2.0 | 4.0 | 0.00 | 0.00 | 0.00 | 47 | 1019.3 |
| 20260506043033 | 35 | 351 | 2.0 | 4.0 | 0.00 | 0.00 | 0.00 | 45 | 1019.4 |
| 20260506041530 | 36 | 355 | 3.0 | 4.0 | 0.00 | 0.00 | 0.00 | 45 | 1019.5 |
| 20260506040028 | 35 | 344 | 2.0 | 5.0 | 0.00 | 0.00 | 0.00 | 44 | 1019.6 |
| 20260506034528 | 38 | 34 | 5.0 | 6.0 | 0.00 | 0.00 | 0.00 | 42 | 1019.4 |
| 20260506033034 | 38 | 35 | 5.0 | 6.0 | 0.00 | 0.00 | 0.00 | 42 | 1019.3 |
| 20260506031533 | 38 | 36 | 6.0 | 9.0 | 0.00 | 0.00 | 0.00 | 41 | 1019.3 |
| 20260506030033 | 39 | 32 | 7.0 | 9.0 | 0.00 | 0.00 | 0.00 | 41 | 1019.2 |
| 20260506024528 | 39 | 26 | 6.0 | 11.0 | 0.00 | 0.00 | 0.00 | 40 | 1019.2 |
| 20260506023028 | 41 | 19 | 9.0 | 12.0 | 0.00 | 0.00 | 0.00 | 38 | 1019.1 |
| 20260506021532 | 43 | 22 | 12.0 | 16.0 | 0.00 | 0.00 | 0.00 | 36 | 1019.0 |
| 20260506020105 | 43 | 5 | 12.0 | 21.0 | 0.00 | 0.00 | 0.00 | 36 | 1019.0 |
| 20260506014531 | 44 | 13 | 13.0 | 22.0 | 0.00 | 0.00 | 0.00 | 36 | 1019.0 |
| 20260506013031 | 44 | 346 | 11.0 | 24.0 | 0.00 | 0.00 | 0.00 | 34 | 1018.8 |
| 20260506011530 | 45 | 9 | 14.0 | 22.0 | 0.00 | 0.00 | 0.00 | 34 | 1018.7 |
| 20260506010031 | 45 | 15 | 13.0 | 24.0 | 0.00 | 0.00 | 0.00 | 35 | 1018.7 |
| 20260506004526 | 46 | 19 | 17.0 | 26.0 | 0.00 | 0.00 | 0.00 | 35 | 1018.7 |
| 20260506003030 | 46 | 344 | 14.0 | 21.0 | 0.00 | 0.00 | 0.00 | 34 | 1018.7 |
| 20260506001533 | 46 | 33 | 16.0 | 26.0 | 0.00 | 0.00 | 0.00 | 34 | 1018.7 |
| 20260506000050 | 46 | 346 | 13.0 | 25.0 | 0.00 | 0.00 | 0.00 | 35 | 1018.6 |
| 20260505234534 | 47 | 18 | 15.0 | 27.0 | 0.00 | 0.00 | 0.00 | 35 | 1018.7 |
| 20260505233030 | 47 | 5 | 17.0 | 28.0 | 0.00 | 0.00 | 0.00 | 34 | 1018.7 |
| 20260505231530 | 46 | 334 | 19.0 | 25.0 | 0.00 | 0.00 | 0.00 | 34 | 1018.6 |
| 20260505230041 | 46 | 335 | 18.0 | 27.0 | 0.00 | 0.00 | 0.00 | 33 | 1018.6 |
| 20260505224528 | 47 | 15 | 23.0 | 30.0 | 0.00 | 0.00 | 0.00 | 34 | 1018.7 |
| 20260505223037 | 47 | 355 | 18.0 | 28.0 | 0.00 | 0.00 | 0.00 | 33 | 1018.6 |
| 20260505221530 | 47 | 13 | 20.0 | 30.0 | 0.00 | 0.00 | 0.00 | 35 | 1018.5 |
| 20260505220028 | 45 | 352 | 22.0 | 30.0 | 0.00 | 0.00 | 0.00 | 36 | 1018.7 |
| 20260505214532 | 46 | 5 | 19.0 | 34.0 | 0.00 | 0.00 | 0.00 | 34 | 1018.7 |
| 20260505213030 | 46 | 5 | 19.0 | 27.0 | 0.00 | 0.00 | 0.00 | 36 | 1018.8 |
| 20260505211541 | 46 | 322 | 20.0 | 27.0 | 0.00 | 0.00 | 0.00 | 37 | 1019.0 |